Wind_Speed
7 8 8 9 10 11 13 13 14 15 16 17 18 19 18 17 16 17 17 18 18 19 19 19 19 18 18 16 13 10 8 9 10 10 9 9 7 5 3 4 4 5 6
8 9 8 9 10 11 12 12 13 13 14 15 16 16 16 15 15 15 15 16 17 17 18 19 19 19 18 17 16 12 9 7 7 8 7 7 7 7 5 3 3 3 3
9 9 8 8 9 10 11 11 11 12 12 13 13 14 13 13 13 13 13 14 14 15 16 16 17 17 17 16 16 14 12 8 5 5 5 5 5 6 6 5 4 3 3
8 7 7 8 9 10 10 10 10 10 11 11 11 11 11 11 11 11 11 11 12 13 13 14 14 14 14 14 14 14 13 11 7 4 3 3 3 3 4 4 4 4 4
6 6 6 7 8 9 9 9 9 9 10 10 9 9 9 9 9 9 9 9 10 10 11 11 12 12 12 12 11 11 12 12 10 7 4 2 2 1 1 2 2 3 3
8 7 7 8 8 8 8 8 8 8 8 8 8 8 8 8 8 8 8 8 8 9 9 9 10 10 10 10 9 9 9 10 10 10 8 3 2 3 2 1 1 0 1
9 9 9 9 9 9 8 8 8 7 7 7 7 7 8 8 8 8 9 9 9 9 9 9 9 9 9 9 8 8 7 7 8 9 9 7 3 3 4 4 3 3 2
9 9 10 10 10 10 9 9 8 7 7 7 8 8 9 9 10 10 10 10 10 10 10 9 9 9 10 10 9 8 7 7 7 7 7 7 6 3 4 6 5 5 5
9 9 10 10 10 10 10 10 9 8 8 9 9 9 10 12 12 13 13 13 13 13 12 13 13 12 12 12 11 10 9 8 7 7 7 6 5 4 4 5 7 7 7
9 9 10 10 10 11 11 11 11 11 11 12 12 13 14 15 16 16 17 17 17 17 17 17 17 17 16 15 15 13 12 11 10 9 9 8 6 4 4 4 6 7 8
13 13 13 13 13 13 14 14 15 15 15 16 17 17 18 18 19 20 20 21 21 21 21 21 21 20 19 18 17 16 15 13 12 12 12 11 10 7 5 5 5 6 7
17 17 17 17 18 18 18 19 20 20 21 21 22 22 23 23 23 24 25 25 25 25 25 25 24 24 23 22 20 19 18 16 15 14 15 15 14 13 10 8 7 7 7
20 20 21 21 22 23 23 24 25 25 26 26 27 27 27 28 28 29 30 30 30 29 29 29 29 28 27 26 25 23 21 20 18 17 17 17 18 18 16 14 12 10 10
23 24 24 25 26 27 28 29 30 30 30 31 32 32 32 32 33 33 34 34 34 34 34 34 34 33 32 31 29 27 26 24 22 21 20 20 21 21 20 19 18 16 14
26 26 27 28 29 30 32 33 34 34 34 35 35 36 36 36 36 37 37 37 38 38 38 38 39 38 37 35 33 31 30 29 27 25 24 23 24 24 24 24 23 22 20
28 29 29 29 29 30 32 33 35 36 37 37 37 39 39 39 39 39 39 38 39 40 40 40 41 41 40 38 36 35 34 33 31 29 27 27 26 27 27 28 28 27 25
30 31 31 30 30 31 32 33 34 35 36 37 38 39 40 40 40 40 39 39 40 40 40 40 40 40 39 38 38 38 37 37 35 33 31 30 29 29 30 31 32 31 31
31 32 32 32 32 32 32 33 33 34 35 36 37 38 39 39 40 40 40 40 40 41 41 41 42 40 40 38 38 38 38 37 37 35 33 32 32 32 33 33 35 35 35
33 34 35 35 34 34 34 34 34 34 35 35 36 37 38 39 40 41 41 41 42 43 43 43 43 42 42 40 39 38 37 36 36 35 34 33 33 33 33 34 35 36 37
35 36 37 36 35 35 34 34 34 35 36 36 37 38 38 39 40 41 42 42 43 43 43 44 44 44 43 41 41 40 38 36 34 34 34 34 33 33 33 34 35 37 38
36 36 36 35 34 34 34 35 35 36 36 37 37 38 38 39 40 41 42 42 43 43 43 43 43 43 42 41 42 39 37 36 34 33 34 34 34 34 33 33 34 36 38
35 35 34 33 32 34 35 35 36 36 37 38 39 39 39 39 39 40 41 41 41 40 40 40 40 40 39 39 40 38 36 34 33 34 34 34 34 34 34 34 35 35 37
32 33 32 32 33 34 34 34 34 35 36 37 38 39 40 40 40 40 40 40 40 39 38 37 37 37 36 36 37 37 36 33 33 33 34 34 34 34 35 35 35 35 36
30 31 31 32 32 31 31 31 31 32 33 35 37 38 39 40 41 41 41 41 41 41 40 38 37 36 35 34 35 36 37 35 34 33 34 35 36 36 37 36 35 35 36
28 29 30 30 29 28 26 26 27 29 31 33 35 37 38 39 40 40 41 42 42 42 42 41 39 38 37 36 36 37 37 37 36 36 34 35 37 37 38 37 36 35 35
27 28 28 27 26 24 24 24 26 28 30 32 34 35 36 38 38 39 40 41 42 43 43 43 42 41 40 39 38 38 39 38 38 38 38 36 37 37 38 37 36 34 34
Wind_Direction
74 66 57 51 50 51 53 54 55 55 53 51 48 46 44 42 40 37 36 37 39 41 43 43 41 40 41 42 42 42 44 43 42 45 50 52 52 57 77 100 103 100 101
64 59 52 46 45 47 48 47 45 43 42 42 41 41 40 39 36 33 31 32 33 36 38 40 39 38 38 39 38 36 35 39 43 44 48 56 61 63 70 94 122 131 128
61 54 45 40 38 39 40 40 38 35 32 32 33 33 34 33 31 28 26 26 26 28 30 32 34 35 35 36 36 35 32 28 29 37 42 50 61 69 71 79 101 127 146
58 47 38 32 29 30 31 31 30 27 24 23 24 25 26 26 25 23 22 20 19 18 19 20 23 26 27 29 31 33 33 30 23 15 17 29 45 62 72 77 84 96 111
34 25 20 17 16 18 18 19 18 16 13 13 13 13 13 13 14 15 15 14 11 8 5 5 7 10 12 14 18 23 26 28 27 21 3 341 342 358 37 68 76 85 95
357 354 354 357 357 359 2 5 6 5 2 1 1 1 358 356 355 357 360 1 359 354 350 348 348 350 352 355 359 4 10 14 17 22 24 5 311 297 300 298 302 350 64
339 340 345 349 349 350 352 354 354 351 348 348 347 345 342 341 340 340 340 341 340 337 334 332 331 331 333 335 337 340 344 351 356 4 18 25 1 293 284 283 277 273 281
332 335 342 346 346 345 344 343 341 339 335 332 331 330 329 327 326 327 326 325 324 322 318 316 315 315 317 318 319 319 317 319 326 336 352 12 17 341 289 277 273 269 268
339 341 342 340 339 337 334 331 327 324 320 317 316 315 315 314 314 314 314 313 312 310 308 306 303 300 299 301 304 304 302 297 294 299 312 331 353 353 319 288 272 265 265
335 334 333 331 327 324 321 317 313 311 308 306 305 304 304 304 304 303 304 303 303 303 302 301 299 297 293 291 292 293 293 289 281 276 279 288 300 314 318 303 284 270 263
314 311 309 308 307 306 304 303 301 300 300 300 299 298 297 297 297 296 295 295 295 295 295 295 294 293 290 287 286 286 287 285 280 271 266 266 271 274 279 286 283 274 266
301 298 295 293 292 292 292 293 293 293 293 293 293 292 292 292 291 291 290 289 289 288 288 287 287 286 285 283 282 281 280 280 278 273 266 262 261 261 260 263 269 269 265
297 295 292 289 287 286 286 286 287 288 288 288 288 288 287 287 286 286 286 285 284 282 281 280 279 278 278 277 276 275 275 274 273 272 268 265 261 258 256 256 257 261 261
295 293 291 288 287 286 285 284 284 284 284 284 284 284 283 283 282 282 282 281 280 278 276 274 272 270 270 270 270 271 270 270 269 268 266 264 262 259 256 255 253 253 254
295 294 292 290 288 286 285 285 284 283 283 283 282 282 281 280 279 278 276 276 275 273 272 271 270 269 268 267 267 267 268 268 267 266 266 265 264 262 258 255 254 253 252
296 295 294 292 290 288 286 285 284 284 284 283 282 279 278 277 276 275 275 274 274 274 275 275 274 274 272 268 267 265 265 266 266 265 266 267 265 264 262 258 256 254 254
297 296 295 293 291 290 288 287 286 285 285 283 282 280 278 278 277 275 275 274 275 276 275 277 278 279 276 275 272 268 267 266 265 266 267 268 267 265 264 261 258 257 255
299 298 297 296 295 294 293 291 290 288 287 285 284 282 282 281 279 278 277 276 276 276 277 277 279 278 279 280 278 273 270 267 266 265 266 268 268 268 266 264 261 258 257
300 300 299 298 298 298 298 296 295 294 292 290 287 284 282 281 280 279 277 276 275 275 276 277 279 279 280 281 280 278 276 270 266 265 267 268 268 268 267 266 263 259 258
299 298 298 298 299 299 300 300 299 298 296 294 291 289 286 283 281 280 278 276 275 275 274 275 277 278 278 279 278 278 277 274 269 268 267 268 268 268 267 266 264 261 259
297 297 296 297 300 302 304 305 305 303 301 298 296 293 290 287 284 282 280 278 277 276 275 274 275 275 276 276 275 275 274 273 270 269 269 269 268 267 268 267 264 261 259
295 296 297 299 303 305 306 307 306 305 303 301 299 296 292 288 285 282 281 279 279 278 276 275 274 273 273 273 274 272 271 272 272 270 269 268 267 267 267 266 264 262 261
291 295 298 302 305 306 307 306 307 306 306 304 302 299 295 290 286 282 279 278 277 276 275 274 274 273 271 270 271 271 272 272 269 269 269 269 268 268 268 267 265 263 263
290 293 297 302 304 305 307 308 310 311 311 310 308 304 299 294 289 283 280 277 275 274 273 273 272 272 270 269 269 270 271 270 269 268 268 269 269 269 269 268 266 264 262
289 292 295 298 299 302 306 310 314 316 316 316 314 311 306 300 295 288 282 278 275 273 272 272 272 271 270 269 269 269 270 270 270 270 269 268 268 269 270 269 267 265 262
285 287 290 291 294 300 305 312 316 318 319 320 320 317 312 306 300 295 288 281 277 274 272 271 270 270 270 270 270 270 270 269 269 270 271 269 267 267 269 269 267 263 260
Height
5917 5917 5917 5916 5915 5914 5913 5912 5911 5911 5910 5910 5909 5909 5908 5907 5907 5906 5906 5905 5905 5904 5903 5902 5901 5900 5899 5897 5896 5895 5894 5894 5893 5892 5892 5891 5890 5890 5889 5889 5889 5889 5889
5918 5917 5917 5917 5916 5914 5913 5913 5912 5912 5911 5911 5910 5910 5909 5908 5908 5907 5907 5906 5905 5904 5904 5903 5901 5900 5899 5898 5897 5895 5894 5894 5893 5893 5893 5892 5892 5891 5891 5890 5890 5890 5890
5918 5918 5917 5917 5916 5914 5913 5913 5912 5912 5911 5911 5910 5910 5909 5909 5908 5908 5907 5906 5905 5904 5904 5903 5902 5901 5900 5899 5897 5896 5895 5894 5893 5893 5893 5893 5893 5892 5892 5891 5891 5890 5891
5918 5918 5917 5916 5915 5914 5913 5913 5912 5912 5911 5911 5910 5910 5909 5909 5908 5908 5907 5906 5905 5904 5904 5903 5902 5901 5900 5899 5898 5896 5895 5894 5893 5893 5893 5893 5893 5892 5892 5892 5891 5891 5890
5919 5918 5917 5916 5915 5914 5913 5913 5912 5912 5911 5911 5910 5910 5909 5908 5908 5907 5906 5905 5905 5904 5903 5902 5902 5901 5900 5899 5898 5896 5895 5893 5892 5892 5892 5892 5892 5892 5892 5892 5891 5891 5891
5919 5918 5917 5916 5915 5914 5913 5913 5912 5911 5911 5910 5910 5909 5908 5908 5907 5906 5905 5904 5904 5903 5902 5901 5900 5900 5899 5898 5897 5896 5894 5893 5892 5891 5890 5890 5890 5890 5891 5891 5891 5891 5890
5919 5918 5916 5915 5914 5913 5913 5912 5911 5911 5910 5909 5909 5908 5907 5906 5906 5905 5904 5903 5902 5901 5900 5899 5899 5898 5897 5896 5895 5894 5893 5892 5890 5889 5888 5888 5888 5888 5888 5889 5889 5889 5889
5918 5917 5915 5914 5914 5913 5912 5911 5911 5910 5909 5909 5908 5907 5906 5905 5904 5903 5902 5902 5900 5899 5898 5897 5896 5895 5894 5893 5892 5892 5891 5890 5889 5888 5887 5886 5886 5886 5886 5886 5886 5887 5887
5917 5915 5914 5914 5913 5912 5911 5911 5910 5909 5908 5908 5907 5906 5905 5904 5903 5902 5901 5900 5899 5898 5897 5895 5894 5893 5892 5891 5890 5889 5888 5887 5887 5886 5885 5884 5883 5883 5883 5883 5884 5884 5885
5915 5914 5913 5912 5911 5910 5910 5909 5908 5908 5907 5906 5905 5904 5903 5902 5901 5900 5899 5898 5897 5896 5894 5893 5892 5891 5890 5888 5887 5886 5886 5885 5884 5884 5883 5882 5881 5881 5880 5880 5881 5881 5882
5913 5912 5911 5910 5909 5908 5907 5906 5906 5905 5905 5904 5903 5902 5901 5900 5898 5897 5896 5895 5893 5892 5891 5890 5889 5887 5886 5885 5884 5883 5883 5882 5881 5881 5880 5880 5879 5879 5878 5878 5878 5878 5879
5911 5909 5908 5907 5906 5905 5904 5903 5902 5902 5901 5900 5899 5898 5897 5896 5894 5893 5891 5890 5889 5888 5887 5886 5885 5883 5882 5881 5880 5879 5879 5878 5878 5877 5877 5876 5876 5876 5876 5875 5875 5875 5876
5908 5906 5904 5903 5902 5900 5900 5899 5898 5897 5896 5895 5894 5893 5892 5891 5889 5888 5886 5885 5883 5882 5881 5880 5879 5878 5876 5875 5875 5874 5874 5874 5873 5873 5873 5872 5872 5872 5872 5872 5872 5872 5873
5904 5902 5900 5898 5897 5896 5894 5893 5892 5892 5890 5889 5888 5887 5885 5884 5883 5881 5880 5878 5877 5875 5874 5873 5871 5870 5869 5868 5868 5868 5868 5868 5868 5867 5867 5867 5867 5867 5868 5868 5868 5868 5869
5899 5897 5895 5893 5892 5890 5888 5887 5886 5885 5884 5882 5881 5879 5878 5877 5875 5873 5872 5870 5869 5867 5866 5864 5863 5862 5861 5861 5861 5861 5861 5861 5861 5861 5861 5862 5862 5862 5862 5863 5863 5864 5864
5893 5891 5889 5887 5885 5884 5882 5880 5878 5877 5876 5874 5872 5870 5868 5867 5866 5864 5863 5862 5860 5859 5857 5856 5855 5854 5853 5852 5853 5853 5853 5853 5853 5854 5854 5855 5855 5856 5856 5857 5858 5859 5859
5886 5884 5882 5880 5878 5877 5875 5873 5871 5869 5868 5866 5864 5862 5859 5857 5856 5855 5854 5853 5852 5850 5849 5848 5846 5846 5845 5845 5845 5845 5845 5845 5845 5846 5846 5847 5848 5848 5849 5849 5850 5852 5853
5879 5877 5875 5873 5871 5869 5868 5866 5864 5862 5860 5858 5856 5854 5851 5849 5848 5846 5845 5845 5844 5842 5842 5840 5839 5838 5837 5837 5837 5837 5836 5836 5837 5838 5838 5839 5839 5840 5840 5841 5842 5843 5845
5872 5870 5867 5866 5864 5862 5860 5858 5856 5854 5852 5850 5848 5846 5844 5841 5839 5838 5837 5837 5835 5834 5833 5832 5830 5830 5830 5829 5828 5827 5827 5827 5828 5829 5830 5830 5831 5831 5832 5832 5833 5835 5836
5866 5863 5861 5859 5857 5855 5853 5850 5848 5846 5844 5841 5839 5837 5835 5833 5830 5829 5828 5827 5825 5825 5824 5823 5822 5821 5821 5820 5819 5819 5819 5818 5819 5820 5821 5821 5822 5823 5823 5824 5824 5826 5827
5860 5857 5855 5853 5850 5848 5845 5842 5840 5837 5835 5832 5830 5828 5825 5823 5821 5819 5818 5816 5815 5815 5814 5813 5812 5811 5811 5810 5809 5809 5810 5810 5810 5811 5811 5812 5813 5813 5814 5815 5815 5816 5818
5853 5851 5848 5846 5844 5841 5838 5835 5833 5830 5827 5824 5821 5818 5816 5814 5811 5809 5808 5806 5805 5804 5804 5803 5802 5801 5801 5800 5799 5799 5800 5802 5802 5802 5802 5802 5803 5804 5805 5805 5806 5807 5808
5847 5845 5842 5840 5837 5834 5832 5829 5826 5823 5819 5816 5812 5809 5806 5803 5801 5799 5797 5796 5795 5794 5793 5793 5792 5791 5791 5791 5790 5789 5790 5792 5793 5793 5793 5793 5793 5794 5795 5795 5796 5797 5798
5842 5839 5836 5834 5831 5828 5826 5823 5819 5816 5812 5808 5804 5800 5796 5792 5790 5788 5786 5785 5784 5783 5782 5782 5781 5781 5781 5781 5781 5780 5780 5781 5782 5784 5784 5783 5783 5783 5784 5785 5786 5787 5787
5836 5833 5831 5828 5826 5823 5820 5817 5814 5810 5806 5802 5797 5792 5787 5783 5779 5776 5775 5773 5772 5771 5770 5770 5770 5770 5770 5770 5770 5770 5770 5770 5771 5773 5774 5774 5773 5773 5773 5774 5775 5776 5777
5830 5828 5825 5823 5820 5818 5815 5811 5807 5804 5800 5795 5790 5785 5779 5774 5769 5766 5763 5761 5760 5758 5758 5758 5758 5758 5758 5758 5759 5759 5759 5759 5760 5761 5762 5764 5763 5763 5763 5764 5765 5766 5767